Wind_Speed
14 14 13 13 15 15 15 15 15 15 14 12 12 12 11 10 9 9 8 8 7 7 8 9 9 9 9 9 8 8 8 8 8 8 9 9 8 8 7 7 7 6 6 6 6 7 8 8 8
14 14 14 14 15 15 15 16 15 15 14 13 12 12 11 11 10 9 9 8 8 8 8 9 9 9 9 9 8 8 8 8 8 8 8 9 8 8 7 7 7 6 6 6 6 7 8 8 8
14 14 14 15 14 15 16 16 15 15 14 13 13 13 12 11 10 10 9 8 8 8 9 9 9 9 9 9 8 8 8 8 8 8 8 8 8 8 7 6 6 7 7 6 6 7 7 7 7
15 15 14 15 15 15 16 15 15 15 15 14 13 13 12 11 10 10 9 9 8 9 9 10 10 10 10 9 8 7 7 8 8 8 8 8 8 7 6 6 6 6 6 6 6 6 6 7 6
14 14 15 15 16 16 15 15 15 15 15 14 13 13 12 11 10 10 9 9 9 9 10 10 10 10 9 9 8 8 8 8 8 8 8 7 7 6 6 5 6 6 6 6 6 6 6 6 5
14 14 15 15 16 16 15 14 15 15 15 14 13 12 11 10 9 9 9 8 8 9 9 10 10 10 10 9 8 8 8 8 7 7 7 6 6 6 6 5 6 6 5 5 5 6 6 5 5
14 14 15 15 15 15 15 15 15 15 14 14 13 12 11 10 9 9 9 9 9 9 9 10 10 10 9 9 9 8 8 8 7 7 7 6 6 6 5 5 5 5 5 5 5 5 5 5 4
13 14 15 15 15 14 14 15 15 14 14 13 13 13 12 11 10 10 10 9 10 10 9 9 10 9 9 8 8 8 7 7 7 7 7 6 6 6 5 5 5 4 4 4 5 5 5 5 4
12 13 14 14 15 15 14 15 15 14 14 13 13 13 13 12 12 11 11 11 11 10 10 9 9 9 9 9 9 8 8 7 7 7 7 7 7 7 6 6 5 5 5 5 5 5 4 5 4
11 12 13 13 14 14 14 14 14 14 14 13 13 14 14 13 13 12 12 12 12 11 11 10 9 10 9 10 10 9 9 8 8 8 7 8 7 7 6 6 6 6 6 6 5 4 4 4 4
9 10 10 11 12 13 13 13 14 14 14 14 13 13 14 13 12 12 12 12 12 12 12 11 10 10 9 10 9 8 9 8 8 8 7 8 8 7 6 6 6 6 5 5 5 4 4 3 3
8 8 8 9 10 11 13 13 14 14 14 14 14 13 13 12 11 11 12 12 11 12 12 12 11 11 10 9 9 9 9 8 7 7 7 7 7 7 6 6 6 6 5 5 4 3 3 2 3
6 7 7 8 9 10 11 12 12 13 13 13 13 12 12 11 10 10 11 11 11 11 11 11 11 11 11 10 9 9 9 9 8 7 7 7 7 7 6 6 6 6 5 5 4 3 2 2 2
5 6 7 7 7 8 9 10 10 11 11 11 11 10 10 10 10 9 9 10 10 10 10 10 10 10 10 10 9 8 8 8 8 8 7 7 7 6 6 5 5 5 4 4 3 2 2 2 1
3 4 5 5 5 6 7 8 9 9 9 9 9 8 8 9 8 8 8 8 8 9 8 8 9 9 9 9 9 8 7 7 7 7 7 6 6 5 5 4 4 4 3 3 3 2 1 1 1
2 2 3 3 3 4 5 6 6 7 7 6 6 6 6 7 7 7 7 7 7 7 7 7 8 8 7 7 7 7 6 5 6 5 5 5 5 5 4 3 3 3 3 3 3 2 2 1 1
4 2 1 0 1 1 2 3 3 4 5 5 4 4 4 5 6 6 6 6 6 6 6 6 6 6 6 6 6 6 6 5 4 4 4 3 3 2 2 2 2 2 2 2 2 2 1 1 0
6 5 4 4 3 2 2 2 2 2 3 4 3 3 3 3 3 4 4 5 5 6 6 5 5 5 5 5 5 5 4 5 4 3 2 2 2 1 1 1 2 2 1 1 1 1 1 1 1
9 8 7 6 6 5 5 4 4 4 3 3 3 2 2 2 2 2 3 3 4 4 5 5 5 5 4 3 3 3 3 3 3 3 2 1 1 1 1 1 1 0 1 1 1 2 2 3 3
11 10 9 9 8 8 7 6 5 5 4 5 4 4 3 3 3 2 2 2 2 2 3 3 4 4 4 3 2 2 2 2 2 2 1 1 1 0 1 1 1 1 1 2 3 3 3 4 4
12 12 11 11 10 10 8 7 6 6 6 7 6 5 4 4 3 3 3 2 2 2 2 2 3 4 3 3 2 1 1 1 1 1 1 1 1 1 2 2 2 2 3 3 4 4 5 5 5
15 14 14 13 13 12 11 9 9 8 8 8 7 6 6 6 5 4 4 4 3 4 3 3 3 4 4 3 3 2 1 1 1 2 2 2 2 2 3 3 4 4 4 5 4 4 5 6 7
15 16 16 15 14 13 12 12 10 10 9 9 8 7 7 7 7 6 6 6 5 5 5 5 5 5 5 5 4 3 3 3 3 3 4 4 4 3 4 4 5 5 6 6 6 7 7 7 8
17 17 17 16 15 14 13 14 11 10 9 9 9 9 8 9 9 9 8 7 7 7 6 7 7 6 6 6 6 5 5 5 5 5 5 5 5 4 5 6 6 7 7 7 8 8 9 9 10
18 18 18 17 16 15 14 15 14 11 11 11 11 11 11 10 10 10 9 8 9 9 9 9 8 7 7 8 8 6 6 6 6 7 6 6 6 6 7 8 8 8 8 8 9 9 10 10 11
20 20 19 19 18 16 16 16 13 13 13 13 12 12 12 11 11 10 9 9 9 10 10 10 10 9 8 8 8 7 7 8 8 8 8 9 9 9 9 9 9 9 9 9 10 10 11 12 13
20 20 20 20 19 19 18 17 14 14 14 15 14 14 14 13 11 11 11 11 11 11 10 11 11 10 9 9 8 9 9 9 10 10 10 10 11 11 10 10 11 11 11 11 11 12 12 13 13
21 20 20 20 20 20 20 18 17 17 16 16 15 15 15 15 14 13 12 12 13 12 11 12 12 10 10 10 10 10 11 11 11 12 12 12 12 12 12 12 12 13 13 13 13 13 13 13 13
22 21 21 21 22 22 22 19 17 18 17 17 16 15 14 16 16 14 14 13 13 14 13 13 13 12 12 12 12 12 12 12 12 13 14 13 13 13 13 14 14 14 14 14 14 14 14 14 14
24 24 23 23 23 23 23 20 17 18 18 18 17 16 15 16 17 16 15 14 14 15 15 14 14 14 13 13 13 13 13 14 14 14 15 15 14 14 14 15 14 14 14 15 15 16 16 16 16
Wind_Direction
70 69 70 73 71 69 69 67 65 62 61 59 59 60 63 65 63 68 72 72 72 77 79 80 77 79 79 83 88 89 90 92 92 90 92 93 96 97 97 91 90 94 103 103 96 101 107 105 103
72 70 73 73 72 70 67 66 63 60 59 60 61 61 63 66 66 73 77 73 77 82 83 82 80 79 80 80 80 85 89 92 94 95 94 95 97 99 99 93 92 92 96 98 91 99 105 102 101
75 72 74 74 73 69 67 66 62 61 59 59 60 61 62 63 67 71 76 76 77 83 84 83 80 77 79 82 85 90 93 98 99 96 93 93 95 96 97 95 90 91 94 95 95 101 103 100 98
74 74 77 75 71 72 69 66 63 60 59 57 59 62 62 63 66 69 73 77 84 87 87 84 81 80 81 80 85 91 98 102 100 98 96 94 96 96 96 94 88 90 91 93 97 101 104 105 105
75 75 78 75 73 73 70 67 64 59 54 53 58 62 62 62 65 69 74 80 85 86 86 86 83 82 81 83 84 88 99 104 104 100 100 98 96 94 92 92 91 93 93 94 95 107 106 103 98
76 75 76 75 73 72 69 66 62 59 55 53 56 62 61 61 65 70 73 78 85 87 87 83 82 85 85 84 83 88 95 101 102 99 98 98 97 97 95 95 96 96 94 92 95 99 100 95 91
75 76 77 75 70 67 66 63 59 57 54 52 55 61 62 58 62 69 75 80 83 86 85 81 82 83 84 83 82 87 92 96 100 100 101 103 102 103 97 94 93 97 95 94 94 99 98 94 89
77 74 75 73 70 65 64 62 59 57 55 53 54 59 61 60 64 70 76 80 82 84 83 83 83 81 82 81 83 88 93 97 99 101 101 100 98 96 93 89 91 97 100 95 94 95 95 93 90
82 74 70 69 67 63 62 62 60 60 58 57 59 59 62 64 71 72 76 80 82 82 82 81 81 78 80 81 83 88 93 99 104 105 100 99 96 92 91 88 88 95 98 97 99 99 92 91 87
86 79 71 68 65 60 59 60 60 63 61 59 61 60 63 67 72 75 78 80 79 79 78 77 80 76 80 82 83 85 93 97 102 102 102 101 97 94 93 91 88 92 95 99 96 97 92 88 90
89 79 72 67 63 60 59 59 60 64 65 64 63 61 63 66 72 75 77 79 79 78 79 77 76 75 81 83 84 87 93 93 98 99 97 94 91 89 95 95 92 93 90 88 91 98 100 96 80
88 79 72 64 60 59 56 57 59 60 64 69 67 64 64 64 68 74 75 76 78 78 78 77 76 74 79 83 84 91 94 94 97 99 96 96 94 91 98 97 93 93 84 84 87 99 111 105 83
90 88 80 67 57 56 57 55 54 56 60 66 67 65 65 64 63 68 71 73 77 78 77 78 79 76 76 84 86 93 94 95 95 98 100 101 104 102 99 92 92 87 80 83 91 103 121 123 96
100 101 89 77 62 57 59 54 48 52 60 64 63 62 62 61 59 62 68 71 74 76 76 77 77 72 69 77 85 89 92 93 92 94 102 106 104 98 95 91 87 76 72 78 88 104 106 108 111
120 105 92 82 71 62 57 53 49 52 58 60 59 60 59 56 51 55 62 67 69 71 71 70 71 68 67 71 78 83 86 89 89 94 100 109 104 96 98 89 72 66 63 71 81 77 98 101 96
171 128 96 78 62 51 50 54 48 51 50 50 56 61 63 57 47 51 55 60 63 63 65 65 66 67 68 71 72 75 80 88 91 95 96 101 102 96 89 84 70 66 64 60 55 60 80 88 68
232 237 235 311 332 33 31 41 44 39 32 32 34 45 56 53 45 43 44 50 52 57 60 57 59 61 64 67 67 64 67 78 89 97 98 97 100 91 88 91 70 70 66 52 49 50 58 64 28
244 246 251 259 277 289 306 321 314 329 354 1 1 20 28 30 37 37 35 35 43 54 54 52 51 50 54 59 63 64 67 64 64 76 117 105 103 102 117 104 84 64 58 48 28 16 360 317 286
243 244 249 256 268 277 281 281 279 278 310 336 347 343 348 340 347 17 28 26 34 44 43 47 43 36 40 52 59 62 64 66 56 57 86 129 109 111 125 99 40 354 283 287 319 336 332 317 298
248 249 251 252 260 268 271 264 265 270 289 293 292 292 283 291 293 300 324 343 0 21 34 32 24 23 24 27 34 57 61 63 54 47 45 17 347 17 61 37 348 309 301 302 305 305 304 307 299
251 254 254 253 254 261 267 260 260 264 272 278 280 280 270 276 278 267 267 285 292 301 321 349 359 359 354 349 342 5 38 15 17 8 342 325 321 294 306 295 312 299 293 286 279 277 287 293 292
249 254 257 254 254 258 263 263 261 262 267 274 281 279 271 266 275 269 260 268 283 282 280 302 317 322 319 314 312 293 272 298 316 317 302 290 291 290 296 297 297 305 296 288 285 284 288 288 291
249 253 257 256 259 260 263 267 265 268 269 272 278 271 266 265 264 263 262 266 276 280 279 284 290 290 291 289 285 279 273 277 282 284 280 274 276 287 296 298 292 291 291 287 288 287 286 285 287
248 251 256 258 263 266 268 269 266 264 268 266 271 267 262 263 260 258 256 265 275 283 284 287 285 276 276 277 275 273 276 277 275 274 273 272 274 281 291 299 297 296 292 287 284 286 287 287 288
248 251 255 259 264 270 270 268 268 268 270 268 270 269 266 263 259 261 260 265 271 276 279 279 273 268 275 273 270 268 272 276 273 273 272 270 272 279 286 290 294 295 296 293 286 284 285 287 287
250 250 254 261 264 266 264 266 270 269 268 266 270 273 269 265 262 262 264 263 267 274 277 276 272 267 272 275 272 268 268 272 273 271 270 269 272 278 283 286 290 289 292 292 288 286 286 287 286
248 251 255 260 263 265 265 267 265 270 273 268 268 269 267 266 264 262 262 265 270 271 277 274 271 270 272 274 277 276 270 270 271 271 270 272 275 277 277 279 284 287 289 290 290 290 292 293 291
248 251 254 259 263 265 267 268 268 271 274 270 271 274 268 265 264 265 265 265 270 271 274 275 270 267 273 277 276 273 270 272 274 273 271 272 272 273 273 277 278 280 284 287 289 291 293 292 291
246 250 255 260 263 266 269 270 272 273 276 274 272 275 272 268 266 265 264 265 269 272 274 276 273 271 272 272 274 273 273 273 274 269 267 268 270 272 274 276 277 279 281 283 286 289 290 291 289
246 249 254 259 263 266 270 273 275 273 275 274 274 273 271 272 272 267 264 265 269 271 272 273 273 272 271 272 273 272 272 272 271 271 269 267 272 277 277 278 276 276 278 281 283 287 288 287 289
Height
5886 5886 5886 5887 5886 5885 5884 5883 5882 5882 5881 5881 5880 5880 5880 5880 5880 5882 5880 5878 5878 5878 5878 5878 5878 5878 5878 5878 5878 5879 5880 5881 5881 5882 5882 5883 5884 5885 5886 5886 5887 5887 5887 5888 5889 5890 5890 5891 5892
5889 5889 5889 5889 5887 5887 5886 5885 5884 5883 5883 5882 5882 5881 5881 5880 5880 5880 5879 5879 5879 5880 5879 5879 5879 5879 5879 5879 5879 5880 5881 5882 5882 5883 5883 5884 5885 5886 5886 5887 5888 5888 5889 5889 5890 5891 5891 5892 5893
5891 5891 5892 5891 5889 5889 5888 5886 5885 5885 5884 5884 5883 5883 5883 5882 5882 5881 5881 5880 5881 5881 5880 5880 5880 5880 5880 5880 5881 5881 5882 5882 5883 5884 5885 5885 5886 5887 5887 5888 5889 5889 5890 5890 5891 5892 5893 5893 5894
5894 5894 5894 5893 5891 5891 5889 5888 5887 5886 5886 5885 5885 5885 5884 5884 5883 5883 5882 5882 5882 5882 5882 5882 5881 5881 5881 5881 5882 5882 5883 5883 5884 5885 5886 5886 5887 5887 5888 5889 5890 5890 5891 5891 5892 5892 5893 5894 5895
5896 5896 5896 5894 5893 5893 5892 5890 5889 5888 5888 5887 5887 5886 5886 5885 5885 5884 5884 5883 5884 5883 5883 5883 5883 5882 5882 5882 5883 5883 5883 5884 5885 5886 5886 5887 5888 5888 5889 5890 5890 5891 5892 5892 5892 5893 5894 5894 5895
5899 5898 5897 5896 5895 5895 5894 5893 5891 5890 5890 5889 5889 5888 5887 5887 5886 5886 5885 5885 5885 5885 5885 5884 5884 5883 5883 5883 5883 5884 5884 5885 5886 5886 5887 5888 5889 5889 5890 5890 5891 5892 5892 5893 5893 5894 5894 5895 5895
5901 5899 5898 5898 5897 5897 5896 5894 5893 5892 5892 5891 5890 5889 5889 5888 5888 5887 5887 5887 5886 5886 5886 5885 5885 5885 5885 5884 5884 5885 5885 5886 5886 5887 5888 5888 5889 5890 5891 5891 5892 5892 5893 5893 5894 5894 5895 5895 5896
5902 5902 5900 5900 5899 5899 5898 5896 5895 5894 5894 5893 5893 5891 5890 5890 5889 5889 5888 5888 5888 5887 5887 5887 5887 5886 5886 5886 5885 5885 5886 5886 5887 5888 5889 5889 5890 5891 5891 5892 5892 5893 5893 5894 5894 5895 5895 5896 5896
5904 5905 5902 5902 5901 5901 5899 5898 5898 5897 5896 5896 5895 5893 5892 5891 5890 5890 5890 5890 5890 5889 5889 5888 5888 5888 5887 5887 5886 5886 5887 5887 5889 5889 5890 5890 5891 5892 5892 5893 5893 5893 5894 5894 5895 5896 5895 5896 5897
5906 5905 5905 5904 5903 5902 5901 5901 5900 5899 5898 5898 5897 5896 5895 5893 5893 5893 5893 5892 5892 5891 5891 5890 5890 5889 5889 5888 5888 5888 5888 5889 5890 5891 5891 5891 5892 5893 5893 5893 5894 5894 5894 5895 5896 5896 5896 5897 5897
5907 5907 5907 5906 5905 5904 5903 5903 5902 5901 5901 5900 5899 5898 5898 5897 5896 5896 5895 5895 5894 5893 5893 5892 5892 5891 5891 5890 5890 5890 5890 5890 5891 5892 5892 5893 5893 5893 5894 5894 5895 5895 5895 5896 5896 5896 5897 5897 5898
5909 5909 5908 5908 5907 5906 5905 5905 5904 5903 5903 5902 5901 5901 5900 5900 5899 5899 5898 5897 5896 5896 5895 5895 5894 5893 5893 5892 5892 5892 5892 5892 5893 5893 5893 5894 5894 5894 5894 5895 5895 5896 5896 5896 5896 5897 5897 5898 5898
5910 5910 5910 5909 5909 5908 5907 5907 5906 5905 5904 5904 5904 5903 5903 5903 5902 5901 5900 5899 5898 5898 5897 5897 5896 5895 5895 5894 5894 5894 5894 5894 5894 5894 5895 5895 5895 5895 5896 5896 5896 5896 5896 5897 5897 5897 5897 5898 5898
5911 5911 5911 5911 5910 5910 5909 5909 5908 5907 5906 5906 5906 5905 5905 5904 5904 5903 5902 5901 5901 5900 5899 5899 5898 5897 5897 5896 5895 5895 5895 5895 5895 5895 5896 5896 5896 5896 5897 5897 5897 5897 5897 5897 5897 5897 5897 5898 5898
5912 5912 5912 5912 5911 5911 5911 5910 5909 5909 5908 5908 5907 5907 5906 5906 5906 5905 5904 5903 5903 5902 5901 5900 5900 5899 5898 5897 5897 5897 5897 5896 5896 5896 5897 5897 5897 5897 5897 5898 5898 5898 5898 5898 5898 5898 5898 5898 5898
5912 5912 5912 5912 5912 5911 5913 5912 5911 5910 5910 5909 5909 5908 5908 5907 5907 5906 5906 5905 5904 5903 5902 5902 5901 5900 5900 5899 5899 5898 5898 5897 5897 5897 5898 5898 5898 5898 5898 5898 5898 5898 5898 5898 5898 5898 5898 5898 5898
5911 5912 5912 5912 5912 5912 5912 5912 5912 5911 5910 5910 5910 5909 5909 5908 5908 5907 5907 5906 5905 5904 5903 5903 5902 5902 5901 5900 5900 5899 5899 5898 5898 5898 5898 5898 5898 5898 5898 5898 5898 5898 5898 5898 5898 5898 5898 5898 5898
5910 5911 5911 5911 5911 5911 5911 5911 5911 5911 5911 5910 5910 5910 5909 5909 5908 5908 5907 5907 5906 5905 5904 5904 5903 5903 5902 5901 5900 5900 5900 5899 5899 5898 5898 5899 5899 5899 5899 5899 5898 5898 5898 5898 5898 5898 5898 5898 5898
5909 5909 5910 5910 5910 5910 5910 5910 5910 5910 5910 5910 5910 5910 5909 5909 5908 5908 5907 5907 5906 5905 5905 5904 5903 5903 5902 5901 5901 5900 5900 5900 5899 5899 5899 5899 5899 5899 5899 5899 5898 5898 5898 5898 5898 5898 5897 5897 5896
5907 5908 5909 5909 5909 5909 5909 5909 5909 5909 5910 5910 5909 5909 5909 5909 5908 5908 5907 5907 5906 5906 5905 5904 5903 5903 5902 5902 5901 5901 5900 5900 5900 5899 5899 5899 5899 5899 5899 5898 5898 5898 5897 5897 5897 5897 5897 5896 5896
5905 5906 5907 5907 5907 5907 5908 5909 5908 5908 5908 5908 5908 5908 5908 5907 5907 5906 5906 5906 5905 5905 5905 5904 5903 5903 5902 5901 5901 5901 5900 5900 5899 5899 5899 5899 5899 5899 5898 5898 5897 5897 5896 5896 5896 5896 5896 5895 5895
5903 5904 5904 5904 5905 5905 5906 5906 5907 5907 5906 5906 5907 5907 5906 5906 5906 5905 5904 5904 5904 5904 5904 5903 5903 5902 5901 5901 5900 5900 5900 5899 5899 5899 5898 5898 5898 5898 5898 5897 5897 5896 5895 5895 5895 5895 5894 5894 5893
5900 5901 5901 5901 5902 5903 5903 5904 5905 5905 5904 5905 5905 5905 5905 5905 5904 5903 5903 5903 5902 5902 5902 5902 5901 5901 5900 5900 5899 5899 5899 5898 5898 5898 5897 5897 5897 5896 5896 5896 5895 5894 5894 5894 5893 5893 5892 5892 5891
5897 5898 5898 5898 5899 5900 5901 5901 5902 5903 5903 5903 5903 5903 5903 5902 5902 5901 5901 5901 5901 5901 5901 5900 5899 5899 5898 5898 5898 5897 5897 5897 5896 5896 5896 5895 5895 5895 5894 5894 5893 5893 5892 5891 5891 5890 5890 5889 5889
5894 5895 5895 5895 5896 5897 5898 5897 5900 5900 5900 5900 5900 5900 5900 5900 5899 5899 5898 5899 5898 5898 5898 5897 5896 5896 5896 5896 5895 5895 5895 5895 5895 5894 5894 5894 5893 5893 5892 5892 5891 5890 5889 5889 5888 5888 5887 5886 5886
5890 5891 5892 5893 5893 5894 5894 5894 5897 5897 5897 5897 5897 5897 5896 5896 5896 5896 5896 5896 5896 5895 5895 5894 5894 5894 5893 5893 5892 5892 5892 5892 5892 5892 5892 5891 5891 5890 5890 5889 5888 5887 5886 5886 5885 5885 5884 5883 5882
5885 5887 5888 5888 5888 5889 5890 5891 5892 5892 5893 5893 5893 5893 5893 5893 5893 5893 5893 5892 5893 5893 5892 5892 5891 5891 5891 5890 5890 5889 5889 5889 5889 5889 5888 5888 5888 5887 5887 5886 5885 5884 5884 5883 5882 5881 5881 5880 5879
5881 5883 5883 5883 5883 5884 5885 5886 5888 5888 5889 5890 5889 5889 5889 5889 5890 5889 5890 5889 5890 5890 5889 5889 5888 5888 5888 5888 5887 5887 5886 5886 5885 5885 5885 5885 5884 5884 5883 5883 5882 5881 5881 5880 5879 5878 5877 5877 5875
5876 5878 5878 5879 5879 5880 5880 5884 5884 5884 5884 5885 5885 5885 5885 5885 5885 5886 5886 5886 5886 5886 5885 5885 5885 5884 5884 5884 5883 5883 5882 5882 5882 5881 5881 5881 5880 5880 5879 5879 5878 5877 5877 5876 5875 5875 5874 5873 5872
5871 5872 5873 5875 5875 5875 5875 5880 5879 5879 5879 5880 5881 5881 5881 5881 5881 5881 5881 5882 5882 5881 5881 5881 5881 5881 5880 5879 5879 5879 5879 5878 5878 5877 5876 5876 5876 5875 5875 5874 5873 5873 5872 5872 5871 5870 5869 5868 5867